Location: B�retswil
(47.3376°N, 8.8534°E)
Time: 23:05:29
(UTC+00:00)

Cosmos 1844 - Visible Passes

Search period start: 24 June 2021 00:00
Search period end: 04 July 2021 00:00
Orbit: 824 x 866 km, 70.9° (Epoch: 24 June)

Date Brightness Start Highest point End Pass type
(mag) Time Alt. Az. Time Alt. Az. Time Alt. Az.
24 Jun 6.0 21:14:49 10° WNW 21:17:56 15° W 21:21:02 10° SW visible
25 Jun 6.0 21:00:44 10° WNW 21:03:57 16° W 21:07:12 10° SW visible
26 Jun 6.0 20:46:38 10° WNW 20:49:59 16° W 20:53:21 10° SW visible
27 Jun 6.0 20:32:33 10° WNW 20:36:01 17° W 20:39:29 10° SW visible
28 Jun 6.0 20:18:28 10° WNW 20:22:02 17° W 20:25:37 10° SW visible
29 Jun 6.1 20:04:24 10° WNW 20:08:04 18° W 20:11:45 10° SW visible
